Regional Weather Roundup
Issued by NWS Newport/Morehead, NC

Current Version | Previous Version | Graphics & Text | Print | Product List | Glossary Off
Versions: 1 2 3 4 5 6 7 8 9 10 11 12 13 14 15 16 17 18 19 20 21 22 23 24 25 26 27 28 29 30 31 32 33 34 35 36 37 38 39 40 41 42 43 44 45 46 47 48 49 50

000
ASUS42 KMHX 172110
RWRMHX
WEATHER ROUNDUP FOR EASTERN NORTH CAROLINA
NATIONAL WEATHER SERVICE NEWPORT/MOREHEAD CITY NC
500 PM EDT WED SEP 17 2014

NOTE: "FAIR" INDICATES FEW OR NO CLOUDS BELOW 12,000 FEET
WITH NO SIGNIFICANT WEATHER AND/OR OBSTRUCTIONS TO VISIBILITY

NCZ015>017-031-032-045>047-102-103-172200-
NORTH COAST

CITY           SKY/WX    TMP DP  RH WIND       PRES   REMARKS
EDENTON        LGT RAIN  71  62  71 NE3       29.93S
ELIZABETH CITY NOT AVBL
KITTY HAWK     PTCLDY    75  61  62 NE9G16    29.91S
MANTEO         CLOUDY    73  62  66 NE14      29.92S

$$

NCZ045>047-081-094-103-104-172200-
CENTRAL COAST

CITY           SKY/WX    TMP DP  RH WIND       PRES   REMARKS
FRISCO         MOSUNNY   74  66  76 NE13G22   29.89S
SWANQUARTER      N/A     77 N/A N/A NE13      29.85S

$$

NCZ095-097-098-100-101-172200-
SOUTHERN COAST

CITY           SKY/WX    TMP DP  RH WIND       PRES   REMARKS
BEAUFORT       MOSUNNY   79  70  74 E8        29.88R
CEDAR ISLAND     N/A     75 N/A N/A N20       29.94S
JACKSONVILLE   PTSUNNY   77  70  79 E8        29.88R THUNDER
NEWPORT        NOT AVBL
PINEY ISLAND   MOCLDY    78  66  66 NE15G25   29.89S
WILMINGTON     PTSUNNY   79  72  79 NE7       29.87S


$$

NCZ011>013-027>030-043-044-078>080-089-090>093-098-172200-
COASTAL PLAIN

CITY           SKY/WX    TMP DP  RH WIND       PRES   REMARKS
AHOSKIE        PTSUNNY   72  60  65 NE6       29.94S
CLINTON        MOSUNNY   79  70  73 NE5       29.90R
ELIZABETHTOWN  PTSUNNY   81  70  68 CALM      29.88S
GOLDSBORO      PTSUNNY   77  72  84 CALM      29.89R
GREENVILLE     PTSUNNY   77  64  65 NE8       29.94R
HAVELOCK       PTSUNNY   75  68  78 NE13      29.90R
KENANSVILLE    PTSUNNY   78  66  66 NE3       29.90R
KINSTON        MOSUNNY   79  66  65 E9        29.91S
NEW BERN       MOSUNNY   77  67  71 E6        29.91R
RICHLANDS      PTSUNNY   79  66  65 E8        29.90R THUNDER
ROANOKE RAPIDS NOT AVBL
ROCKY MOUNT    CLOUDY    77  65  66 NE8       29.93R
WASHINGTON     SUNNY     75  64  66 NE8       29.92S
WHITEVILLE     SUNNY     81  67  61 CALM      29.87F

$$

AMZ130-135-150-152-154-156-158-170-250-252-270-ANZ085-086-088-633-658-670-172200-
MARINE OBSERVATIONS

STATION/POSITION TIME  TEMP    WIND        PRES    WAVE   SWELL
                       AIR SEA DIR/SP/G            HT/PER HT/PER
                 (UTC) (F)     (DEG/KT/KT) (MB)    (FT/S) (FT/S)
CHESAPEAKE LIGHT 2000   71      60/ 14/ 16 1014.6
BUOY 44014       2100   73 78   30/ 12/ 16 1013.2    6/13   5/13
DUCK             2100   72 76   40/ 17/ 19 1012.6
2E DUCK          2100                        N/A     5/13   3/13
OREGON INLET     2100   74 76   40/ 15/ 20 1012.6
BUOY 44095       2100      76                N/A     5/14   3/14
20E OREGON INLET NOT AVBL
HATTERAS CG      2100   76 79   50/ 13/ 18 1012.5
DIAMOND BUOY     2100   74     360/ 17/ 23 1011.2    5/14   3/14
CAPE LOOKOUT     2000   74      50/ 10/ 11 1011.3
BEAUFORT LAB     2100   77 80   70/  8/ 12 1011.4
30 SE NEW RIVER  2100   78 83   90/ 10/ 12 1011.6    4/14   3/14
5 SE WRIGHTSVILL 2000   76 82   60/  8/ 10   N/A
BUOY 41002       2048   77 82  270/  6/ 10 1009.7    6/13   7/13
BUOY 41004       2100   80 83   10/  6/  8 1011.1    3/14   3/14

$$


USA.gov is the U.S. government's official web portal to all federal, state and local government web resources and services.